"Pseudo-MPEC" for P21DvP8

Created 2023 Mar 26 5:22:15 UT using Find_Orb

Click here for an explanation of pseudo-MPECs

 
 Astrometry: 
     P21DvP8* C2023 03 16rPt#lo+$i%KLMBu#Zc36$l\slktuTAstrometry;)LkWP]M5;pnfF52
     P21DvP8  C2023 03 16BA.rxB[1Y_WoX$:,yo!)ul`K*g:y8redacted;/fZPN,)qg:*Ly^F52
     P21DvP8  C2023 03 16P:DOcEX^lsdP`$Ox3click;3D?here!;aoforyexplanationgAxF52

Station data:
(F52) Pan-STARRS 2, Haleakala  (N20.707382 W156.255910)  US/Hawaii.
   Observers J. Bulger, T. Dukes, T. Lowe, A. Schultz, M. Willman. Measurers
   K. Chambers, S. Chastel, T. de Boer, L. Denneau, J. Fairlamb, H.
   Flewelling, M. Huber, C.-C. Lin, E. Magnier, Y. Ramanjooloo, R. Wainscoat,
   R. Weryk. 1.8-m Ritchey-Chrétien + CCD.

Orbital elements:  P21DvP8
   Perihelion 2023 Mar 30.95325 +/- 50.8 TT = 22:52:40 (JD 2460034.45325)
Epoch 2023 Mar 16.0 TT = JDT 2460019.5   Earth MOID: 0.3816      AutoNEOCP
M 354.30837105 +/- 35               (J2000 ecliptic)
n   0.38062831 +/- 0.369            Peri.   15.39159 +/- 70
a   1.88568287 +/- 1.22             Node   160.38257 +/- 16
e   0.2754060 +/- 0.273             Incl.   25.00869 +/- 15
P   2.59/945.79d           H 21.97  G  0.15   U 12.1  SR
q 1.36635442 +/- 0.472    Q 2.40501133 +/- 33.7
From 3 observations 2023 Mar. 16 (49.2 min); mean residual 0".05
Residuals in arcseconds: 
230316 F52  .00   .03-    230316 F52  .00   .10+    230316 F52  .00   .06-    

Ephemerides (geocentric):
Date (UTC) HH   RA             Dec           delta  r     elong  mag " sig PA
---- --------  ------------   ------------  ------ ------ -----  --- --------
2023 03 26 05  09 52 45.122   +28 39 15.84  .47259 1.3668 133.6 22.4  24d   7
2023 03 26 06  09 52 47.964   +28 40 53.30  .47280 1.3668 133.6 22.4  24d   7
2023 03 26 07  09 52 50.812   +28 42 30.61  .47302 1.3668 133.5 22.4  24d   7
2023 03 26 08  09 52 53.664   +28 44 07.78  .47323 1.3668 133.5 22.4  24d   8
2023 03 26 09  09 52 56.522   +28 45 44.79  .47344 1.3668 133.4 22.4  24d   8
2023 03 26 10  09 52 59.385   +28 47 21.66  .47365 1.3668 133.4 22.4  24d   8
2023 03 26 11  09 53 02.253   +28 48 58.38  .47386 1.3668 133.3 22.4  24d   8
2023 03 26 12  09 53 05.126   +28 50 34.95  .47408 1.3668 133.3 22.4  24d   8
2023 03 26 13  09 53 08.005   +28 52 11.37  .47429 1.3668 133.2 22.4  25d   8
2023 03 26 14  09 53 10.888   +28 53 47.64  .47450 1.3668 133.2 22.4  25d   9
2023 03 26 15  09 53 13.777   +28 55 23.76  .47472 1.3668 133.2 22.4  25d   9
2023 03 26 16  09 53 16.671   +28 56 59.74  .47493 1.3668 133.1 22.4  25d   9
2023 03 26 17  09 53 19.571   +28 58 35.57  .47514 1.3667 133.1 22.4  25d   9
2023 03 26 18  09 53 22.475   +29 00 11.25  .47536 1.3667 133.0 22.4  25d   9
2023 03 26 19  09 53 25.385   +29 01 46.78  .47557 1.3667 133.0 22.4  25d   9
2023 03 26 20  09 53 28.300   +29 03 22.16  .47579 1.3667 132.9 22.4  25d   9
2023 03 26 21  09 53 31.220   +29 04 57.40  .47600 1.3667 132.9 22.4  25d  10
2023 03 26 22  09 53 34.145   +29 06 32.48  .47622 1.3667 132.8 22.5  25d  10
2023 03 26 23  09 53 37.075   +29 08 07.42  .47643 1.3667 132.8 22.5  25d  10
2023 03 27 00  09 53 40.011   +29 09 42.21  .47665 1.3667 132.7 22.5  25d  10
2023 03 27 01  09 53 42.952   +29 11 16.85  .47686 1.3667 132.7 22.5  25d  10
2023 03 27 02  09 53 45.898   +29 12 51.35  .47708 1.3667 132.7 22.5  25d  10
2023 03 27 03  09 53 48.849   +29 14 25.69  .47730 1.3667 132.6 22.5  25d  10
2023 03 27 04  09 53 51.805   +29 15 59.89  .47751 1.3667 132.6 22.5  25d  10
2023 03 27 05  09 53 54.766   +29 17 33.94  .47773 1.3667 132.5 22.5  25d  11
2023 03 27 06  09 53 57.733   +29 19 07.85  .47795 1.3667 132.5 22.5  25d  11
2023 03 27 07  09 54 00.705   +29 20 41.60  .47816 1.3666 132.4 22.5  25d  11
2023 03 27 08  09 54 03.682   +29 22 15.21  .47838 1.3666 132.4 22.5  25d  11
2023 03 27 09  09 54 06.664   +29 23 48.67  .47860 1.3666 132.3 22.5  25d  11
2023 03 27 10  09 54 09.651   +29 25 21.98  .47882 1.3666 132.3 22.5  25d  11
2023 03 27 11  09 54 12.643   +29 26 55.15  .47903 1.3666 132.3 22.5  25d  11
2023 03 27 12  09 54 15.641   +29 28 28.17  .47925 1.3666 132.2 22.5  25d  11
2023 03 27 13  09 54 18.643   +29 30 01.04  .47947 1.3666 132.2 22.5  25d  11
2023 03 27 14  09 54 21.651   +29 31 33.76  .47969 1.3666 132.1 22.5  25d  11
2023 03 27 15  09 54 24.664   +29 33 06.33  .47991 1.3666 132.1 22.5  25d  11
2023 03 27 16  09 54 27.682   +29 34 38.76  .48013 1.3666 132.0 22.5  25d  12
2023 03 27 17  09 54 30.705   +29 36 11.04  .48035 1.3666 132.0 22.5  25d  12
2023 03 27 18  09 54 33.733   +29 37 43.17  .48057 1.3666 131.9 22.5  25d  12
2023 03 27 19  09 54 36.767   +29 39 15.16  .48079 1.3666 131.9 22.5  25d  12
2023 03 27 20  09 54 39.805   +29 40 47.00  .48101 1.3666 131.9 22.5  26d  12
2023 03 27 21  09 54 42.849   +29 42 18.69  .48123 1.3666 131.8 22.5  26d  12
2023 03 27 22  09 54 45.898   +29 43 50.23  .48145 1.3666 131.8 22.5  26d  12
2023 03 27 23  09 54 48.952   +29 45 21.63  .48167 1.3666 131.7 22.5  26d  12
2023 03 28 00  09 54 52.011   +29 46 52.88  .48189 1.3665 131.7 22.5  26d  12
2023 03 28 01  09 54 55.075   +29 48 23.99  .48211 1.3665 131.6 22.5  26d  12
2023 03 28 02  09 54 58.144   +29 49 54.94  .48233 1.3665 131.6 22.5  26d  12
2023 03 28 03  09 55 01.218   +29 51 25.75  .48256 1.3665 131.5 22.5  26d  12
2023 03 28 04  09 55 04.297   +29 52 56.41  .48278 1.3665 131.5 22.5  26d  12